Location: Champs
(48.8539°N, 2.6040°E)
Time: 05:30:30
(UTC+00:00)

Cosmos 2112 Rocket - Pass Details

Date: 26 October 2021
Orbit: 755 x 788 km, 74.1° (Epoch: 04 December)

Event Time Altitude Azimuth Distance (km) Brightness Sun altitude
Rises 05:15:22 0° 205° (SSW) 3,213 7.0 -12.4°
Reaches altitude 10° 05:17:43 10° 207° (SSW) 2,296 6.3 -12.0°
Maximum altitude 05:22:56 78° 293° (WNW) 793 4.0 -11.1°
Drops below altitude 10° 05:28:15 10° 21° (NNE) 2,334 6.7 -10.3°
Sets 05:30:40 0° 23° (NNE) 3,271 7.5 -9.9°
